Flag for United Arab Emirates Weather past 2 weeks in Abu Dhabi, Abu Dhabi, United Arab Emirates

Now
91 °F

Sunny.


Feels Like: 97 °F
Forecast: 92 / 107 °F
Wind: 1 mph from North

Location: Abu Dhabi Bateen Airport

Current Time: Aug 5, 2015 at 6:43:09 AM

Latest Report: Aug 5, 2015 at 6:00 AM


Visibility: 10 mi

Pressure: 29.53 "Hg

Humidity: 49%

Dew point: 70 °F

Historic Weather in Abu Dhabi — Graph

°F

Abu Dhabi temperature yesterday

Maximum temperature yesterday: 113 °F (at 3:00 PM)
Minimum temperature yesterday: 93 °F (at 4:00 AM)
Average temperature yesterday: 100 °F

Past Weeks' High & Low Weather Summary

 TemperatureHumidityPressure
High117 °F (Jul 28, 3:00 PM)84% (Jul 23, 5:00 AM)29.59 "Hg (Jul 23, 5:00 AM)
Low88 °F (Jul 22, 5:00 AM)8% (Jul 21, 1:00 PM)29.36 "Hg (Jul 26, 3:00 PM)
Average100 °F41%29.47 "Hg
* Reported Jul 21 5:00 AM — Aug 5 5:00 AM, Abu Dhabi, Weather by CustomWeather, © 2015

Note: Actual official high and low records may vary slightly from our data, if they occured in-between our weather recording intervals... More about our weather records

Advertising

Abu Dhabi weather history for previous 24 hours

 ConditionsComfort  
Time TempWeatherWind HumidityBarometerVisibility
5:00 AM
Wed, Aug 5
91 °FClear.1 mph56%29.50 "Hg10 mi
4:00 AM93 °FPassing clouds.3 mph56%29.50 "HgN/A
3:00 AM93 °FClear.5 mph49%29.50 "Hg10 mi
2:00 AM95 °FClear.No wind50%29.50 "Hg10 mi
1:00 AM97 °FPassing clouds.3 mph42%29.53 "HgN/A
12:00 AM99 °FClear.6 mph37%29.53 "Hg10 mi
11:00 PM
Tue, Aug 4
99 °FClear.7 mph37%29.56 "Hg10 mi
10:00 PM99 °FPassing clouds.10 mph39%29.56 "HgN/A
9:00 PM97 °FClear.10 mph56%29.53 "Hg10 mi
8:00 PM97 °FClear.9 mph63%29.53 "Hg10 mi
7:00 PM99 °FPassing clouds.9 mph60%29.50 "HgN/A
6:00 PM102 °FSunny.13 mph45%29.50 "Hg10 mi
5:00 PM106 °FPassing clouds.10 mph32%29.50 "HgN/A
4:00 PM109 °FPassing clouds.10 mph25%29.50 "HgN/A
3:00 PM113 °FPassing clouds.6 mph21%29.50 "HgN/A
2:00 PM111 °FPassing clouds.7 mph17%29.50 "HgN/A
1:00 PM111 °FSunny.6 mph17%29.53 "Hg10 mi
12:00 PM108 °FPassing clouds.8 mph22%29.56 "HgN/A
11:00 AM104 °FPassing clouds.10 mph28%29.59 "HgN/A
10:00 AM100 °FPassing clouds.10 mph33%29.59 "HgN/A
9:00 AM97 °FSunny.10 mph34%29.59 "Hg10 mi
8:00 AM95 °FPassing clouds.8 mph34%29.59 "HgN/A
7:00 AM93 °FPassing clouds.6 mph34%29.59 "HgN/A
6:00 AM93 °FSunny.7 mph32%29.56 "Hg10 mi
Weather by CustomWeather, © 2015

See weather overviewHow to use our weather pages